Regional Weather Roundup
Issued by NWS

Home | Current Version | Previous Version | Graphics & Text | Print | Product List | Glossary On
Versions: 1 2 3 4 5 6 7 8 9 10 11 12 13 14 15 16 17 18 19 20 21 22 23 24 25 26 27 28 29 30 31 32 33 34 35 36 37 38 39 40 41 42 43 44 45 46 47 48 49 50
000
ASUS43 KMPX 281210
RWRMN
WEATHER ROUNDUP FOR MINNESOTA
NATIONAL WEATHER SERVICE TWIN CITIES/CHANHASSEN MN
700 AM CDT TUE JUL 28 2015


NOTE: "FAIR" INDICATES FEW OR NO CLOUDS BELOW 12,000 FEET WITH NO
SIGNIFICANT WEATHER AND/OR OBSTRUCTIONS TO VISIBILITY. N/A MEANS
CURRENT SKY AND/OR WEATHER CONDITIONS ARE NOT AVAILABLE.

MNZ060>063-068>070-281300-
   Twin Cities Metro

CITY           SKY/WX    TMP DP  RH WIND       PRES   REMARKS
TWIN CITIES    TSTM      72  70  93 SW13G24   29.91R FOG
6HR MIN TEMP:  72; 6HR MAX TEMP:  76; 6HR PCP:  0.45;

ST PAUL        TSTM      73  71  93 W15       29.90R FOG
CRYSTAL        RAIN      73  70  90 SE15      29.85R FOG
BLAINE         HVY RAIN  73  73 100 SW18G25   29.89R
LAKEVILLE      TSTM      70  70 100 W13       29.88R
EDEN PRAIRIE   TSTM      72  70  93 E12       29.86R FOG
6HR MIN TEMP:  71; 6HR MAX TEMP:  75; 6HR PCP:  1.22;

SOUTH ST PAUL  CLOUDY    73  71  94 S9G20     29.84R
LAKE ELMO      RAIN      73  72  94 S12G20    29.86R
$$
MNZ001>005-007-008-013>017-022>024-027-028-281300-
   Northwest Minnesota

CITY           SKY/WX    TMP DP  RH WIND       PRES   REMARKS
BEMIDJI        LGT RAIN  70  68  94 S8        29.68F
HALLOCK        CLOUDY    75  72  88 S16G25    29.57S
ROSEAU         CLOUDY    75  70  83 SE10G17   29.64F
WARROAD        CLOUDY    73  70  88 SE8       29.66F
THIEF RVR FALL CLOUDY    72  70  94 S15       29.65S
CROOKSTON      RAIN      70  68  94 S22       29.60F
FOSSTON        LGT RAIN  70  66  88 S6        29.68F
DETROIT LAKES  LGT RAIN  70  68  94 SE10      29.66F
MOORHEAD       CLOUDY    70  68  94 S6        29.68R
PARK RAPIDS    LGT RAIN  71  68  90 SE10      29.70F
MAHNOMEN       RAIN      70  69  96 E6        29.65F
$$
MNZ006-009>011-018-025>026-281300-
   North Central Minnesota

CITY           SKY/WX    TMP DP  RH WIND       PRES   REMARKS
BAUDETTE       CLOUDY    72  68  87 SE9       29.69S
FLAG ISLAND    CLOUDY    73  70  88 SE14G23   29.67F
INTL FALLS     CLOUDY    70  67  90 SE7       29.76F
6HR MIN TEMP:  67; 6HR MAX TEMP:  73;

WASKISH        CLOUDY    73  70  88 SE6       29.71R
BIG FORK       CLOUDY    72  68  88 S7        29.76F
LONGVILLE      TSTM      72  70  94 SE6       29.74F
GRAND RAPIDS   CLOUDY    72  66  83 SE10G18   29.79S
CRANE LAKE     CLOUDY    66  64  94 SE2       29.81F
ORR            CLOUDY    70  64  83 SE8       29.77S
COOK           CLOUDY    72  66  83 SE7       29.80F
WALKER         RAIN      70  69  96 SE8       29.71F
$$
MNZ012-019>021-037-281300-
   Northeast Minnesota

CITY           SKY/WX    TMP DP  RH WIND       PRES   REMARKS
DULUTH         CLOUDY    70  65  84 SE10      29.86R
6HR MIN TEMP:  68; 6HR MAX TEMP:  74;

ELY            CLOUDY    70  63  78 SE8       29.86R
HIBBING        CLOUDY    71  68  90 SE8       29.81F
EVELETH        CLOUDY    68  64  88 SE7       29.84F
DULUTH HARBOR  CLOUDY    72  68  88 CALM      29.85R
TWO HARBORS    CLOUDY    70  64  83 CALM      29.85S
SILVER BAY     CLOUDY    68  64  88 CALM      29.85F
GRAND MARAIS     N/A     60  57  89 NE6       29.88F
G MARAIS ARPRT MOSUNNY   66  59  77 E3        29.94F
$$
MNZ029>031-032-039>041-046>048-054>057-064-281300-
   West Central Minnesota

CITY           SKY/WX    TMP DP  RH WIND       PRES   REMARKS
FERGUS FALLS   CLOUDY    70  70 100 SE5       29.64R
WHEATON        CLOUDY    66  64  94 CALM      29.69R
MORRIS         CLOUDY    70  70 100 S8        29.66R
ALEXANDRIA     CLOUDY    69  68  96 SE8       29.67S
ELBOW LAKE     FAIR      67  66  94 SE6       29.64F
WADENA         CLOUDY    68  66  94 E8        29.66S
GLENWOOD       CLOUDY    68  68 100 S6        29.68R
APPLETON       CLOUDY    70  66  88 SW6       29.67R
BENSON         CLOUDY    70  66  88 W7        29.66R
ORTONVILLE     CLOUDY    68  64  88 SW3       29.69R
MADISON        CLOUDY    70  66  88 S8        29.70R
WILLMAR        LGT RAIN  70  70 100 SE17      29.66F
$$
MNZ033>034-036-042>043-049>051-058-059-281300-
   Central Minnesota

CITY           SKY/WX    TMP DP  RH WIND       PRES   REMARKS
ST CLOUD       CLOUDY    71  70  96 SE10      29.76F
6HR MIN TEMP:  71; 6HR MAX TEMP:  74; 6HR PCP:  1.08;

SAUK CENTRE    DRIZZLE  N/A N/A N/A SE16G25   29.63F
PAYNESVILLE    LGT RAIN  68  67  99 E13       29.71F
AITKIN         TSTM      73  66  78 SE14G20   29.79R
PINE RIVER     RAIN      72  70  94 E13G20    29.71F
BRAINERD       RAIN      71  70  96 SE10G28   29.68F FOG
STAPLES        LGT RAIN  70  68  94 SE10G17   29.68F
LONG PRAIRIE   LGT RAIN  68  68 100 E13G25    29.65F
LITTLE FALLS   LGT RAIN  68  66  94 SE14G20   29.72F
LITCHFIELD     RAIN      72  72 100 SE6       29.76F
BUFFALO        CLOUDY    72  68  88 SE8       29.81F
MAPLE LAKE     CLOUDY    72  70  94 SE6       29.80F
$$
MNZ037-044-045-052-053-281300-
   East Central Minnesota

CITY           SKY/WX    TMP DP  RH WIND       PRES   REMARKS
PRINCETON      RAIN      72  70  94 SE13G18   29.81F
MORA           CLOUDY    70  68  94 S7        29.86S
CAMBRIDGE      TSTM      73  64  73 S9        29.83R
RUSH CITY      TSTM      73  69  88 S7        29.86R
MOOSE LAKE     CLOUDY    70  68  94 S5        29.81S
HINCKLEY       PTSUNNY   72  70  94 SE6       29.84S
CLOQUET        CLOUDY    70  66  88 SE5       29.85R
MCGREGOR       CLOUDY    72  70  94 S14G20    29.82R
$$
MNZ071>073-080-081-089-090-097-098-281300-
   Southwest Minnesota

CITY           SKY/WX    TMP DP  RH WIND       PRES   REMARKS
MONTEVIDEO     DRIZZLE   70  70 100 SW5       29.69R
GRANITE FALLS  CLOUDY    68  67  96 SE20G28   29.68F
CANBY          CLOUDY    69  66  91 SW3       29.71R
MARSHALL       CLOUDY    68  63  83 S16       29.71R
REDWOOD FALLS  LGT RAIN  69  66  90 SE18G28   29.72F
OLIVIA         LGT RAIN  68  64  88 SE18G24   29.70F
PIPESTONE      CLOUDY    68  63  83 SE5       29.77R
WINDOM         HVY RAIN  66  64  94 E18       29.79F
WORTHINGTON    CLOUDY    66  63  88 E13G25    29.73F
JACKSON        CLOUDY    68  66  94 E10       29.88F
TRACY          CLOUDY    68  64  88 SE12G17   29.71F
SLAYTON        CLOUDY    65  65  99 CALM      29.75F
$$
MNZ065>067-074>077-082>085-091>093-281300-
   South Central Minnesota

CITY           SKY/WX    TMP DP  RH WIND       PRES   REMARKS
MANKATO        CLOUDY    70  64  83 S8        29.87F
NEW ULM        RAIN      68  66  94 SW8       29.84F
ST JAMES       RAIN      70  66  88 S6        29.88F
FAIRMONT       CLOUDY    70  63  78 W5        29.92S
GLENCOE        LGT RAIN  72  71  98 SE7       29.81S
FARIBAULT      CLOUDY    70  66  88 W18G30    29.89R
OWATONNA       CLOUDY    72  70  94 SE17      29.84F THUNDER
WASECA         TSTM      68  64  88 W14G26    29.91R
ALBERT LEA     CLOUDY    72  70  94 SE14      29.86F THUNDER
$$
MNZ078>079-086>088-094>096-281300-
   Southeast Minnesota

CITY           SKY/WX    TMP DP  RH WIND       PRES   REMARKS
ROCHESTER      LGT RAIN  71  70  96 S16       29.88F FOG
6HR MIN TEMP:  70; 6HR MAX TEMP:  72; 6HR PCP:  0.04;

RED WING       CLOUDY    75  70  83 S15G21    29.83F
STANTON        TSTM      73  69  89 SE3       29.80F
DODGE CENTER   CLOUDY    72  70  94 S16G22    29.86S
WINONA         CLOUDY    73  70  88 SE3       29.91F
AUSTIN         CLOUDY    72  68  88 S14G23    29.89S
PRESTON        TSTM      70  68  94 S7        29.94F
$$
ABBREVIATIONS USED IN REMARKS
   TC - TEMPERATURES IN CELSIUS
  WCI - WIND CHILL INDEX
   HX - HEAT INDEX
  VSB - VISIBILITY
$$



USA.gov is the U.S. government's official web portal to all federal, state and local government web resources and services.